Regional Weather Roundup
Issued by NWS

Home | Current Version | Previous Version | Text Only | Print | Product List | Glossary On
Versions: 1 2 3 4 5 6 7 8 9 10 11 12 13 14 15 16 17 18 19 20 21 22 23 24 25 26 27 28 29 30 31 32 33 34 35 36 37 38 39 40 41 42 43 44 45 46 47 48 49 50
000
ASUS45 KBOU 080107
RWRCO

WEATHER ROUNDUP FOR COLORADO
NATIONAL WEATHER SERVICE DENVER/BOULDER CO
600 PM MST SUN FEB 07 2016

NOTE: "FAIR" INDICATES FEW OR NO CLOUDS BELOW 12000 FEET WITH NO
SIGNIFICANT WEATHER AND/OR OBSTRUCTIONS TO VISIBILITY.

COZ001>005-013-030-031-080200-
...NORTHWEST COLORADO...

CITY           SKY/WX    TMP DP  RH WIND       PRES   REMARKS
CRAIG          CLOUDY    13   6  74 CALM      30.49R
HAYDEN         CLOUDY    18  10  73 SW5       30.48R WCI  11
MEEKER         CLOUDY    17  11  77 CALM      30.47R
MOUNT WERNER   NOT AVBL
STEAMBOAT SPGS CLOUDY    28  15  59 W12       30.45S WCI  18
WALDEN         CLEAR     25  10  54 NW9G18    30.40R WCI  15
$$

COZ006>008-011-080200-
...WEST CENTRAL VALLEYS...

CITY           SKY/WX    TMP DP  RH WIND       PRES   REMARKS
GRAND JUNCTION CLOUDY    23  18  81 CALM      30.50R
MONTROSE       CLOUDY    31  19  61 N3        30.49R
EAGLE          CLEAR     36  18  48 CALM      30.47R
RIFLE          CLOUDY    26  15  63 S5        30.49R WCI  20
DELTA          CLOUDY    31  21  68 N6        30.50S WCI  25
NUCLA          CLOUDY    37  21  52 CALM      30.47S
$$

COZ017>023-064>068-080200-
...SOUTHWEST COLORADO...

CITY           SKY/WX    TMP DP  RH WIND       PRES   REMARKS
DURANGO        CLOUDY    23  14  68 CALM      30.37S
CORTEZ         CLOUDY    41  20  43 SE5       30.38R
PAGOSA SPRINGS CLOUDY    27  19  70 CALM      30.38R
TELLURIDE      NOT AVBL
WOLF CREEK PAS CLOUDY    25   5  42 E7        30.47R WCI  17
$$

COZ009-010-012-014-032>034-037-058>063-080200-
...CENTRAL COLORADO...

CITY           SKY/WX    TMP DP  RH WIND       PRES   REMARKS
ASPEN          CLOUDY    22  13  68 S7        30.47R WCI  13
BUENA VISTA    CLOUDY    34  11  39 NW20G31   30.30R WCI  22
COPPER MTN     CLOUDY    19  10  68 NW21G29   30.40R WCI   3
BERTHOUD PASS  MOCLDY     9   0  66 NW48G56   30.28R WCI -19
COTTONWOOD PAS CLOUDY    34   1  25 NW20G45   30.25F WCI  22
GUNNISON       CLOUDY     7  -6  56 CALM      30.50S
KREMMLING      CLOUDY    30  12  47 CALM      30.46R
LEADVILLE      CLOUDY    21   8  57 N14       30.42R WCI   8
MONARCH PASS   CLOUDY    16  10  79 MISG      30.48S
SALIDA         NOT AVBL
SUNLIGHT       CLOUDY    21  14  73 CALM        N/A
WILKERSON PASS CLOUDY    23   5  46 NW16G48   30.30R WCI  10
$$

COZ069>075-080200-
...SAN LUIS VALLEY/SANGRE DE CRISTO MOUNTAINS...

CITY           SKY/WX    TMP DP  RH WIND       PRES   REMARKS
ALAMOSA        CLOUDY    32  17  54 SW3       30.35R
LA VETA PASS   CLOUDY    28   7  40 S13       30.33R WCI  18
SAGUACHE       CLOUDY    32  16  51 N8        30.38R WCI  25
$$

COZ035-036-038>040-080200-
...NORTHERN COLORADO FRONT RANGE...

CITY           SKY/WX    TMP DP  RH WIND       PRES   REMARKS
DENVER INTL AP CLOUDY    22  17  81 E9        30.33R WCI  12
DMNS CITY PARK   N/A     26  19  74 E10G17    30.34R WCI  17
AURORA         PTCLDY    23  19  85 E13       30.33R WCI  11
FRONT RANGE AP MOCLDY    23  18  80 E9        30.34R WCI  13
ERIE MUNI ARPT CLOUDY    28  21  77 S3        30.35R
BOULDER MUN AP CLOUDY    30  23  74 E6        30.35R WCI  24
CENTENNIAL     MOCLDY    23  18  81 E10       30.31R WCI  12
BROOMFIELD     MOCLDY    27  21  80 E6        30.34R WCI  20
FORT COLLINS   CLOUDY    25  19  80 S10       30.34R WCI  15
LONGMONT       CLOUDY    31  23  72 S5        30.38R WCI  26
$$

COZ041-046-047-076>085-087-088-080200-
...PIKES PEAK/PALMER DIVIDE AND SOUTHERN FOOTHILLS...

CITY           SKY/WX    TMP DP  RH WIND       PRES   REMARKS
COLO. SPRINGS  CLOUDY    25  19  78 CALM      30.32R
A. F. ACADEMY  CLOUDY    23  19  82 S6        30.29R WCI  16
SCHRIEVER AFB  FAIR      22  20  92 SW3       30.32R
ELLICOTT       NOT AVBL
FALCON         CLOUDY    18  15  87 SW6       30.30R WCI  10
FORT CARSON    PTCLDY    25  21  85 S2        30.31R
LIMON          PTCLDY    18  14  84 NW9       30.34R WCI   7
MONUMENT HILL  CLOUDY    16  14  93 E7        30.30R WCI   6
TRINIDAD       CLEAR     29  20  69 E7        30.30R WCI  22
$$

COZ042>045-048>051-090-091-080200-
...NORTHEAST COLORADO...

CITY           SKY/WX    TMP DP  RH WIND       PRES   REMARKS
GREELEY ARPT   CLOUDY    27  19  74 E5        30.35R WCI  21
AKRON          CLOUDY    27  17  66 NW22      30.32R WCI  13
BURLINGTON     CLOUDY    30  17  58 NW16      30.31R WCI  19
WRAY           MOCLDY    32  17  55 N29G36    30.29S WCI  17
STERLING       CLOUDY    32  19  59 N22G29    30.30R WCI  19
HOLYOKE        CLEAR     34  19  55 NW17G29   30.30R WCI  23
FORT MORGAN    PTCLDY    27  16  62 N10       30.35R WCI  17
$$

COZ086-089-092>099-080200-
...SOUTHEAST COLORADO...

CITY           SKY/WX    TMP DP  RH WIND       PRES   REMARKS
PUEBLO         CLEAR     31  22  69 E9        30.35R WCI  23
LA JUNTA       CLEAR     30  22  72 NE7       30.36R WCI  23
LAMAR          CLEAR     31  16  54 N7        30.36R WCI  24
SPRINGFIELD      N/A     27  18  69 N12       30.35R WCI  17
$$



USA.gov is the U.S. government's official web portal to all federal, state and local government web resources and services.